TimeHST,TemperatureF,Dew PointF,Humidity,Sea Level PressureIn,VisibilityMPH,Wind Direction,Wind SpeedMPH,Gust SpeedMPH,PrecipitationIn,Events,Conditions,WindDirDegrees,DateUTC
12:58 AM,71.6,66.2,83,30.02,10.0,NNE,3.5,-,0.00,,Mostly Cloudy,30,2013-10-09 10:58:00
12:59 AM,71.6,66.2,83,30.05,10.0,Variable,3.5,-,N/A,Rain,Light Rain,0,2013-10-09 10:59:00
1:00 AM,71.6,66.2,83,30.05,10.0,Variable,3.5,-,N/A,,Mostly Cloudy,0,2013-10-09 11:00:00
1:06 AM,71.6,66.2,83,30.06,10.0,Variable,3.5,-,N/A,,Light Drizzle,0,2013-10-09 11:06:00
1:07 AM,71.6,66.2,83,30.06,10.0,Variable,2.3,-,N/A,,Mostly Cloudy,0,2013-10-09 11:07:00
1:21 AM,71.6,66.2,83,30.05,10.0,WNW,5.8,-,N/A,,Light Drizzle,290,2013-10-09 11:21:00
1:22 AM,71.6,66.2,83,30.05,10.0,WNW,5.8,-,N/A,,Mostly Cloudy,290,2013-10-09 11:22:00
1:32 AM,69.8,66.2,88,30.06,10.0,Variable,2.3,-,N/A,,Drizzle,0,2013-10-09 11:32:00
1:33 AM,69.8,66.2,88,30.06,10.0,Variable,2.3,-,N/A,,Scattered Clouds,0,2013-10-09 11:33:00
1:58 AM,69.8,66.2,88,30.02,10.0,Variable,1.2,-,0.00,,Scattered Clouds,0,2013-10-09 11:58:00
2:58 AM,71.6,66.2,83,30.00,10.0,NE,10.4,-,0.00,,Mostly Cloudy,50,2013-10-09 12:58:00
3:07 AM,71.6,66.2,83,30.03,9.0,NNE,10.4,-,N/A,,Light Drizzle,30,2013-10-09 13:07:00
3:08 AM,71.6,66.2,83,30.03,9.0,NNE,9.2,-,N/A,,Mostly Cloudy,30,2013-10-09 13:08:00
3:10 AM,69.8,66.2,88,30.03,9.0,NNE,9.2,-,N/A,Rain,Light Rain,20,2013-10-09 13:10:00
3:11 AM,69.8,66.2,88,30.03,9.0,NNE,9.2,-,N/A,,Mostly Cloudy,30,2013-10-09 13:11:00
3:12 AM,69.8,66.2,88,30.03,9.0,NNE,8.1,-,N/A,Rain,Rain,20,2013-10-09 13:12:00
3:13 AM,69.8,66.2,88,30.03,9.0,Variable,6.9,-,N/A,,Mostly Cloudy,0,2013-10-09 13:13:00
3:14 AM,69.8,66.2,88,30.03,8.0,NNE,8.1,-,N/A,Rain,Heavy Rain,30,2013-10-09 13:14:00
3:15 AM,69.8,66.2,88,30.03,8.0,NNE,8.1,-,N/A,,Mostly Cloudy,20,2013-10-09 13:15:00
3:16 AM,69.8,66.2,88,30.03,8.0,North,6.9,-,N/A,Rain,Rain,10,2013-10-09 13:16:00
3:17 AM,69.8,66.2,88,30.03,8.0,Variable,5.8,-,N/A,,Mostly Cloudy,0,2013-10-09 13:17:00
3:58 AM,69.8,66.2,88,29.99,10.0,NNE,4.6,-,0.01,,Partly Cloudy,30,2013-10-09 13:58:00
4:58 AM,69.8,66.2,88,30.01,10.0,NNE,4.6,-,0.00,,Partly Cloudy,30,2013-10-09 14:58:00
5:58 AM,69.8,66.2,88,30.01,10.0,East,8.1,-,N/A,,Partly Cloudy,80,2013-10-09 15:58:00
6:58 AM,69.8,66.2,88,30.03,10.0,NE,5.8,-,N/A,,Scattered Clouds,40,2013-10-09 16:58:00
7:58 AM,73.4,66.2,78,30.04,10.0,ENE,6.9,-,N/A,,Partly Cloudy,70,2013-10-09 17:58:00
8:08 AM,73.4,66.2,78,30.06,9.0,East,12.7,-,N/A,Rain,Light Rain,80,2013-10-09 18:08:00
8:09 AM,73.4,66.2,78,30.06,9.0,East,13.8,-,N/A,,Partly Cloudy,80,2013-10-09 18:09:00
8:11 AM,73.4,66.2,78,30.06,9.0,ENE,16.1,-,N/A,Rain,Light Rain,70,2013-10-09 18:11:00
8:12 AM,73.4,66.2,78,30.06,9.0,ENE,15.0,-,N/A,,Partly Cloudy,70,2013-10-09 18:12:00
8:13 AM,73.4,66.2,78,30.06,9.0,ENE,12.7,-,N/A,,Light Drizzle,70,2013-10-09 18:13:00
8:14 AM,73.4,66.2,78,30.06,9.0,ENE,12.7,-,N/A,,Partly Cloudy,70,2013-10-09 18:14:00
8:58 AM,75.2,66.2,73,30.04,10.0,East,5.8,-,0.00,,Clear,80,2013-10-09 18:58:00
9:58 AM,78.8,66.2,65,30.03,10.0,ENE,13.8,-,N/A,,Partly Cloudy,70,2013-10-09 19:58:00
10:58 AM,78.8,68.0,69,30.03,10.0,ENE,12.7,-,0.00,,Partly Cloudy,60,2013-10-09 20:58:00
11:44 AM,80.6,66.2,61,30.04,10.0,NE,16.1,-,N/A,,Clear,40,2013-10-09 21:44:00
11:58 AM,80.6,66.2,61,30.00,10.0,ENE,18.4,-,N/A,,Clear,70,2013-10-09 21:58:00
12:58 PM,80.6,64.4,58,29.99,10.0,East,11.5,-,N/A,,Partly Cloudy,80,2013-10-09 22:58:00
1:58 PM,80.6,64.4,58,29.97,10.0,ENE,10.4,-,0.00,,Clear,70,2013-10-09 23:58:00
2:58 PM,80.6,64.4,58,29.96,10.0,ENE,11.5,-,N/A,,Scattered Clouds,60,2013-10-10 00:58:00
3:58 PM,78.8,66.2,65,29.96,10.0,NE,8.1,-,N/A,,Partly Cloudy,40,2013-10-10 01:58:00
4:58 PM,77.0,64.4,65,29.97,10.0,East,9.2,-,N/A,,Scattered Clouds,80,2013-10-10 02:58:00
5:46 PM,77.0,64.4,65,30.01,10.0,ENE,9.2,-,N/A,Rain,Light Rain,60,2013-10-10 03:46:00
5:47 PM,77.0,66.2,69,30.01,10.0,ENE,8.1,-,N/A,,Scattered Clouds,70,2013-10-10 03:47:00
5:58 PM,75.2,66.2,73,29.99,10.0,ENE,6.9,-,0.00,,Scattered Clouds,60,2013-10-10 03:58:00
6:58 PM,75.2,64.4,69,29.99,10.0,ENE,6.9,-,N/A,,Partly Cloudy,60,2013-10-10 04:58:00
7:58 PM,73.4,66.2,78,30.01,10.0,NNE,6.9,-,0.00,,Partly Cloudy,30,2013-10-10 05:58:00
8:58 PM,73.4,66.2,78,30.00,10.0,NE,8.1,-,N/A,,Clear,50,2013-10-10 06:58:00
9:58 PM,71.6,64.4,78,30.01,10.0,Calm,Calm,-,N/A,,Scattered Clouds,0,2013-10-10 07:58:00
10:58 PM,69.8,64.4,83,30.00,10.0,NW,3.5,-,N/A,,Clear,310,2013-10-10 08:58:00
11:58 PM,69.8,65.5,86,30.00,10.0,North,2.3,-,N/A,,Partly Cloudy,10,2013-10-10 09:58:00